Weather History for PAVD - November, 2012

Change the Weather History Date:

Sunday, November 11, 2012

  Actual Average Record
Temperature  
Mean Temperature 28 °F -  
Max Temperature 33 °F 32 °F 47 °F (1981)
Min Temperature 24 °F 23 °F 1 °F (1989)
Degree Days  
Heating Degree Days 36    
Moisture  
Dew Point 25 °F    
Average Humidity 87    
Maximum Humidity 100    
Minimum Humidity 74    
Precipitation  
Precipitation 0.00 in - - ()
Sea Level Pressure  
Sea Level Pressure 29.64 in    
Wind  
Wind Speed 1 mph (East)    
Max Wind Speed 6 mph    
Max Gust Speed -    
Visibility 10 miles    
Events      
Averages and records for this station are not official NWS values.
T = Trace of Precipitation, MM = Missing Value Source: NWS Daily Summary

Daily Weather History Graph

Daily Weather History Graph

Search for Another Location

Airport or City:

Trip Planner

Search our weather history database for the weather conditions in past years. The results will help you decide how hot, cold, wet, or windy it might be!

Date:

Astronomy

Nov. 11, 2012 Rise Set
Actual Time 8:41 AM AKST 4:15 PM AKST
Civil Twilight 7:51 AM AKST 5:06 PM AKST
Nautical Twilight 6:57 AM AKST 5:59 PM AKST
Astronomical Twilight 6:07 AM AKST 6:49 PM AKST
Moon 5:33 AM AKST (11/11) 3:11 PM AKST (11/11)
Length of Visible Light 9h 15m
Length of Day
7h 34m
Waning Crescent, 6% of the Moon is Illuminated
Nov 11
Waning Crescent
Nov 13
New
Nov 20
First Quarter
Nov 28
Full
Dec 6
Last Quarter

Hourly Weather History & Observations

Time (AKST) Temp. Windchill Dew Point Humidity Pressure Visibility Wind Dir Wind Speed Gust Speed Precip Events Conditions
12:16 AM 30.2 °F - 26.6 °F 86% 29.58 in 5.0 mi Calm Calm - N/A   Overcast
12:36 AM 30.2 °F - 28.4 °F 93% 29.57 in 2.5 mi Calm Calm - N/A   Overcast
1:36 AM 28.4 °F 24.6 °F 26.6 °F 93% 29.57 in 10.0 mi SE 3.5 mph - N/A   Mostly Cloudy
1:56 AM 30.2 °F 25.4 °F 28.4 °F 93% 29.57 in 10.0 mi NNE 4.6 mph - N/A   Overcast
2:16 AM 30.2 °F 24.3 °F 28.4 °F 93% 29.56 in 10.0 mi West 5.8 mph - N/A   Overcast
2:36 AM 28.4 °F 24.6 °F 26.6 °F 93% 29.57 in 9.0 mi East 3.5 mph - N/A   Overcast
2:56 AM 30.2 °F - 28.4 °F 93% 29.57 in 10.0 mi Calm Calm - N/A   Overcast
3:16 AM 30.2 °F - 26.6 °F 86% 29.57 in 10.0 mi Calm Calm - N/A   Overcast
3:56 AM 30.2 °F 26.7 °F 24.8 °F 80% 29.57 in 10.0 mi East 3.5 mph - N/A   Overcast
4:56 AM 28.4 °F - 28.4 °F 100% 29.57 in 10.0 mi Calm Calm - N/A   Scattered Clouds
5:16 AM 28.4 °F - 24.8 °F 86% 29.57 in 2.0 mi Calm Calm - N/A   Clear
5:56 AM 28.4 °F - 26.6 °F 93% 29.58 in 10.0 mi Calm Calm - N/A   Clear
6:16 AM 24.8 °F 20.5 °F 24.8 °F 100% 29.58 in 10.0 mi ENE 3.5 mph - N/A   Clear
6:36 AM 26.6 °F - 24.8 °F 93% 29.58 in 10.0 mi Calm Calm - N/A   Clear
7:36 AM 24.8 °F - 17.6 °F 74% 29.59 in 10.0 mi Calm Calm - N/A   Clear
7:56 AM 24.8 °F - 23.0 °F 93% 29.59 in 10.0 mi Calm Calm - N/A   Scattered Clouds
8:36 AM 24.8 °F - 17.6 °F 74% 29.60 in 10.0 mi Calm Calm - N/A   Scattered Clouds
8:56 AM 24.8 °F - 23.0 °F 93% 29.60 in 10.0 mi Calm Calm - N/A   Partly Cloudy
9:36 AM 24.8 °F - 23.0 °F 93% 29.61 in 10.0 mi Calm Calm - N/A   Partly Cloudy
9:56 AM 24.8 °F - 23.0 °F 93% 29.61 in 10.0 mi Calm Calm - N/A   Partly Cloudy
10:16 AM 26.6 °F - 21.2 °F 80% 29.62 in 10.0 mi Calm Calm - N/A   Scattered Clouds
10:36 AM 28.4 °F 24.6 °F 24.8 °F 86% 29.62 in 10.0 mi SSW 3.5 mph - N/A   Scattered Clouds
11:16 AM 32.0 °F - 28.4 °F 87% 29.63 in 10.0 mi Calm Calm - N/A   Mostly Cloudy
11:36 AM 33.8 °F - 28.4 °F 81% 29.63 in 10.0 mi Calm Calm - N/A   Mostly Cloudy
11:56 AM 33.8 °F - 26.6 °F 75% 29.63 in 10.0 mi Calm Calm - N/A   Mostly Cloudy
12:16 PM 33.8 °F - 28.4 °F 81% 29.64 in 10.0 mi Calm Calm - N/A   Mostly Cloudy
12:36 PM 33.8 °F - 30.2 °F 87% 29.64 in 10.0 mi Calm Calm - N/A   Mostly Cloudy
1:16 PM 33.8 °F - 28.4 °F 81% 29.64 in 10.0 mi Calm Calm - N/A   Mostly Cloudy
1:36 PM 33.8 °F - 30.2 °F 87% 29.65 in 10.0 mi Calm Calm - N/A   Mostly Cloudy
1:56 PM 33.8 °F - 26.6 °F 75% 29.65 in 10.0 mi Calm Calm - N/A   Mostly Cloudy
2:16 PM 33.8 °F - 26.6 °F 75% 29.65 in 10.0 mi Calm Calm - N/A   Mostly Cloudy
2:36 PM 33.8 °F 30.8 °F 30.2 °F 87% 29.65 in 10.0 mi North 3.5 mph - N/A   Mostly Cloudy
2:56 PM 33.8 °F - 28.4 °F 81% 29.65 in 10.0 mi Calm Calm - N/A   Mostly Cloudy
3:16 PM 33.8 °F - 28.4 °F 81% 29.66 in 10.0 mi Calm Calm - N/A   Mostly Cloudy
3:36 PM 32.0 °F - 28.4 °F 87% 29.66 in 10.0 mi Calm Calm - N/A   Mostly Cloudy
3:56 PM 32.0 °F - 28.4 °F 87% 29.67 in 10.0 mi Calm Calm - N/A   Mostly Cloudy
4:16 PM 30.2 °F - 28.4 °F 93% 29.67 in 10.0 mi Calm Calm - N/A   Mostly Cloudy
4:36 PM 30.2 °F 26.7 °F 26.6 °F 86% 29.67 in 10.0 mi ENE 3.5 mph - N/A   Mostly Cloudy
4:56 PM 30.2 °F 24.3 °F 26.6 °F 86% 29.67 in 10.0 mi East 5.8 mph - N/A   Scattered Clouds
5:36 PM 28.4 °F 24.6 °F 26.6 °F 93% 29.68 in 10.0 mi ENE 3.5 mph - N/A   Scattered Clouds
5:56 PM 26.6 °F 22.6 °F 23.0 °F 86% 29.68 in 10.0 mi East 3.5 mph - N/A   Partly Cloudy
6:36 PM 28.4 °F - 24.8 °F 86% 29.69 in 10.0 mi Calm Calm - N/A   Partly Cloudy
7:16 PM 26.6 °F 22.6 °F 26.6 °F 100% 29.70 in 10.0 mi East 3.5 mph - N/A   Partly Cloudy
7:36 PM 26.6 °F 21.2 °F 21.2 °F 80% 29.70 in 10.0 mi East 4.6 mph - N/A   Partly Cloudy
7:56 PM 24.8 °F - 19.4 °F 80% 29.71 in 10.0 mi Calm Calm - N/A   Partly Cloudy
8:16 PM 24.8 °F 19.1 °F 19.4 °F 80% 29.71 in 10.0 mi East 4.6 mph - N/A   Partly Cloudy
8:36 PM 24.8 °F - 23.0 °F 93% 29.71 in 10.0 mi Calm Calm - N/A   Partly Cloudy
8:56 PM 26.6 °F 21.2 °F 24.8 °F 93% 29.72 in 10.0 mi ENE 4.6 mph - N/A   Partly Cloudy
9:16 PM 24.8 °F 20.5 °F 21.2 °F 86% 29.72 in 10.0 mi ESE 3.5 mph - N/A   Partly Cloudy
9:47 PM 24.8 °F - 21.2 °F 86% 29.74 in 10.0 mi Calm Calm - N/A   Partly Cloudy
10:16 PM 24.8 °F - 21.2 °F 86% 29.74 in 10.0 mi Calm Calm - N/A   Clear
10:36 PM 24.8 °F - 24.8 °F 100% 29.74 in 10.0 mi Calm Calm - N/A   Clear
11:36 PM 24.8 °F - 19.4 °F 80% 29.75 in 10.0 mi Calm Calm - N/A   Clear
11:56 PM 26.6 °F - 23.0 °F 86% 29.75 in 10.0 mi Calm Calm - N/A   Clear